* Astronomy

Members Login
Username 
 
Password 
    Remember Me  
Post Info TOPIC: Asteroid 2012 BB62


L

Posts: 131433
Date:
Asteroid 2012 BB62
Permalink  
 


Orbital elements:
2012 BB62                                                Earth MOID = 0.0364 AU
Epoch 2012 Mar. 14.0 TT = JDT 2456000.5                 MPC
M  31.62338              (2000.0)            P               Q
n   0.35867342     Peri.  126.92577     +0.25610909     -0.96155799
a   1.9618686      Node   307.93871     +0.84214003     +0.27226019
e   0.5277140      Incl.    7.21619     +0.47456117     +0.03578576
P   2.75           H   26.0           G   0.15           U   8

MPEC 2012 - B76



__________________
Page 1 of 1  sorted by
 
Quick Reply

Please log in to post quick replies.



Create your own FREE Forum
Report Abuse
Powered by ActiveBoard